Location: Buchberg
(46.9333°N, 15.8500°E)
Time: 08:50:27
(UTC+00:00)

Cosmos 1743 - Pass Details

Date: 14 July 2020
Orbit: 511 x 526 km, 82.6° (Epoch: 07 August)

Event Time Altitude Azimuth Distance (km) Brightness Sun altitude
Exits shadow 01:27:33 - 159° (SSE) 1,779 5.1 -14.0°
Reaches altitude 10° 01:27:40 10° 159° (SSE) 1,734 5.0 -14.0°
Maximum altitude 01:31:09 35° 92° (E) 840 4.1 -13.7°
Drops below altitude 10° 01:34:41 10° 26° (NNE) 1,756 6.8 -13.3°
Sets 01:36:56 0° 17° (NNE) 2,651 7.8 -13.1°
